Location: Unspecified
(0.0000°N, 0.0000°E)
Time: 04:53:57
(UTC+00:00)

STRAND 1 - Pass Details

Date: 14 August 2024
Orbit: 764 x 777 km, 98.4° (Epoch: 14 September)

Event Time Altitude Azimuth Distance (km) Brightness Sun altitude
Rises 18:16:07 0° 2° (N) 3,222 ? -2.8°
Reaches altitude 10° 18:18:28 10° 357° (N) 2,300 ? -3.4°
Maximum altitude 18:23:22 50° 282° (WNW) 974 ? -4.6°
Drops below altitude 10° 18:28:18 10° 207° (SSW) 2,318 ? -5.8°
Sets 18:30:41 0° 202° (SSW) 3,249 ? -6.3°
